User: anonymous   Login
Location: Góry Miechowskie
(50.3599°N, 20.1803°E)
Time: 10:08:25
(UTC+00:00)
Language:

deb Explorer IX - Orbit

View from above orbital plane
View from above orbital plane
View from above satellite
View from above satellite

Ground track
Ground track

The orbit data is extracted from the following two-line orbital elements,

1 00085U 61004C   24247.22247623  .00047886  00000-0  57481-2 0  9991
2 00085  38.7314 302.3767 0244110 149.3688 212.1579 14.64243578151806
Epoch (UTC): 03 September 2024 05:20:21
Eccentricity: 0.0244110
inclination: 38.7314°
perigee height: 507 km
apogee height: 852 km
right ascension of ascending node: 302.3767°
argument of perigee: 149.3688°
revolutions per day: 14.64243578
mean anomaly at epoch: 212.1579°
orbit number at epoch: 15180

The dashed part of the orbit path shows where the satellite is in the earth's shadow,  

DLR